HAWK-10A (60540 NORAD) Tracking and Keplerian Element Data

This shows tracking and keplerian element data for the satellite.

Feedback or suggestion? Click here.




ElementValue
Catalog60540
NameHAWK-10A
Epoch Orbit848
Epoch Day286.75411024
Epoch Year2024
RAAN1.3715
Inclination97.7501
Eccentricity0.0002819
Argument of Perigee335.6967
Mean Anonmoly24.4119
Mean Motion14.92756003
Decay Rate7.139E-05
L11 60540U 24149CA 24286.75411024 .00007139 00000+0 69608-3 0 9992
L22 60540 97.7501 1.3715 0002819 335.6967 24.4119 14.92756003 8480



Live tracking and technical data element details for HAWK-10A (NORAD 60540). HAWK-10A can be tracked NOW for your location showing map with azimuth and elevation plus other details from your city location.







IsCatalogInMostPopularTable: catalog: 60540, numindb: 6
Update: records affected: 1



GetName: 60540 HAWK-10A

Hit Count: updated at: Wed, 04 Dec 2024 18:01:26 GMT